Printer-friendly version

IAU Minor Planet Center

Minor Planet Center

MPEC 2005-H01 : 2005 GC141

The following Minor Planet Electronic Circular may be linked-to from your own Web pages, but must not otherwise be redistributed electronically.


Read MPEC 2005-G94 Read MPEC 2005-H02


M.P.E.C. 2005-H01                                Issued 2005 Apr. 16, 01:54 UT

     The Minor Planet Electronic Circulars contain information on unusual
         minor planets and routine data on comets.  They are published
   on behalf of Commission 20 of the International Astronomical Union by the
          Minor Planet Center, Smithsonian Astrophysical Observatory,
                          Cambridge, MA 02138, U.S.A.

                  Supported in part by the Brinson Foundation
             Prepared using the Tamkin Foundation Computer Network

                              MPC@CFA.HARVARD.EDU
          URL http://cfa-www.harvard.edu/iau/mpc.html  ISSN 1523-6714

                                  2005 GC141

Observations:
     K05GE1C* C2005 04 12.41276 16 53 24.54 +27 10 45.0          18.5 R EH001699
     K05GE1C  C2005 04 12.42740 16 53 26.41 +27 11 54.8                 EH001699
     K05GE1C  C2005 04 12.44204 16 53 28.40 +27 13 04.5                 EH001699
     K05GE1C  C2005 04 12.45670 16 53 30.31 +27 14 14.2                 EH001699
     K05GE1C  C2005 04 15.29902 16 59 59.15 +30 51 20.6          19.2 R EH001854
     K05GE1C  C2005 04 15.30190 16 59 59.48 +30 51 33.3          19.3 R EH001854
     K05GE1C  C2005 04 15.30477 16 59 59.86 +30 51 46.8          19.4 R EH001854
     K05GE1C  C2005 04 16.05412 17 01 36.87 +31 46 25.6          19.3 R EH001118
     K05GE1C  C2005 04 16.06109 17 01 37.71 +31 46 55.5          19.2 R EH001118
     K05GE1C  C2005 04 16.06457 17 01 38.17 +31 47 11.3          19.4 R EH001118

Observer details:
118 Modra.  Observers S. Gajdos, J. Vilagi.  0.6-m f/5.5 reflector + CCD.
699 Lowell Observatory-LONEOS.  Observer B. A. Skiff.  0.59-m LONEOS Schmidt
    + CCD.
854 Sabino Canyon Observatory, Tucson.  Observer J. E. McGaha.  0.36-m f/10.0
    Schmidt-Cassegrain + CCD.

Orbital elements:
2005 GC141
Epoch 2005 Mar. 31.0 TT = JDT 2453460.5                 MPC
M 344.77121              (2000.0)            P               Q
n   0.54027988     Peri.   39.93624     -0.70288033     +0.70954983
a   1.4929898      Node   186.05304     -0.71092244     -0.69844902
e   0.2006674      Incl.   28.29422     +0.02342065     +0.09331669
P   1.82           H   19.6           G   0.15
From 10 observations 2005 Apr. 12-16.

Ephemeris:
2005 GC141               a,e,i = 1.49, 0.20, 28                  q = 1.1934
Date    TT    R. A. (2000) Decl.     Delta      r     Elong.  Phase     V
2005 04 10    16 47.60   +23 55.1    0.334    1.200   119.1    46.9    19.4
2005 04 20    17 09.73   +36 16.2    0.362    1.195   113.3    50.6    19.7
2005 04 30    17 26.50   +45 23.1    0.403    1.193   107.8    53.5    20.0
2005 05 10    17 37.59   +51 38.7    0.448    1.196   103.5    55.2    20.3
2005 05 20    17 43.32   +55 39.7    0.492    1.203   100.5    55.8    20.5
2005 05 30    17 44.72   +57 56.5    0.532    1.214    98.7    55.6    20.7
2005 06 09    17 43.11   +58 47.4    0.565    1.228    98.0    54.9    20.8
2005 06 19    17 40.40   +58 21.3    0.591    1.246    98.2    53.8    20.9
2005 06 29    17 38.43   +56 44.4    0.610    1.267    99.2    52.4    21.0
2005 07 09    17 38.54   +53 59.1    0.623    1.290   101.0    50.7    21.0
2005 07 19    17 41.73   +50 07.3    0.633    1.315   103.3    48.8    21.0
2005 07 29    17 48.29   +45 13.3    0.642    1.341   105.8    46.8    21.0
2005 08 08    17 58.12   +39 23.1    0.653    1.369   108.4    44.7    21.1
2005 08 18    18 11.01   +32 49.7    0.671    1.397   110.5    42.7    21.1
2005 08 28    18 26.51   +25 53.2    0.700    1.426   111.7    41.2    21.2
2005 09 07    18 44.17   +18 56.8    0.741    1.454   111.6    40.1    21.3
2005 09 17    19 03.61   +12 25.0    0.797    1.483   110.2    39.5    21.5
2005 09 27    19 24.38   +06 36.4    0.868    1.511   107.6    39.2    21.7
2005 10 07    19 46.13   +01 41.1    0.953    1.539   104.0    39.1    22.0

                       (Last issue was M.P.E.C. 2005-G94)

Timothy B. Spahr             (C) Copyright 2005 MPC           M.P.E.C. 2005-H01

Read MPEC 2005-G94 Read MPEC 2005-H02


Our Web policy. Index to the CBAT/MPC/ICQ pages.


Valid HTML 4.01!